sat.trackr.live / text

‹ back to catalog

STARLINK-1215

NORAD 45225 · 2020-012AZ

PAYLOAD ACTIVE UNKNOWN

§ Identity

Operator
Country
US
Launch date
2020-02-17
Launch site
AFETR
Launch vehicle
Mass (kg)
RCS (m²)

Purposes: comms

External: N2YO · Heavens-Above · Gunter

§ Orbital elements

Epoch: 2026-09-20T00:24:28.290240Z

Period
93.27 min
Inclination
53.1494°
Eccentricity
0.0002578
Mean motion
15.43860146 rev/d
Perigee alt
433.0 km
Apogee alt
436.5 km
Semi-major
6,812.9 km
B*
9.2217e-4
RAAN
167.6251°
Arg perigee
131.8209°
Mean anomaly
228.3019°
Rev number
36,534

§ Raw data

STARLINK-12151 45225U 20012AZ  26263.01699410  .00042309  00000+0  92217-3 0  99932 45225  53.1494 167.6251 0002578 131.8209 228.3019 15.43860146365344

JSON: /api/v1/satellites/45225 · /tle

For live sub-satellite position, see the globe view (requires WebGL).

§ Visibility from observer

Set your observer location to see the next 7 days of passes ≥ 10°. The values pass through the URL so the page stays shareable.

No JS? Fill the form by hand. The geolocation button needs JavaScript.